SCP
0 0 0 0 0 0 0 0 0 0 0 0 0 0 0 0 0 0 0 0 0 0 0 0 0 1 0 0 0 0 0 0 0 0 0 0 0 0 0 0 0 0 0 0 0 0 0 0 0
0 0 0 0 0 0 0 0 0 0 0 0 0 0 0 0 0 0 0 0 0 0 0 0 0 0 0 0 0 0 0 0 0 0 0 0 0 0 0 0 0 0 0 0 0 0 0 0 0
0 0 0 0 0 0 0 0 0 0 0 0 0 0 0 0 0 0 0 0 0 0 0 0 0 0 0 0 0 0 0 0 0 0 0 0 0 0 0 0 0 0 0 0 0 0 0 0 0
0 0 0 0 0 0 0 0 0 0 0 0 0 0 0 0 0 0 0 1 1 0 0 0 0 0 0 0 0 0 0 0 0 0 0 0 0 0 0 0 0 0 0 0 0 0 0 0 0
0 0 0 0 0 0 0 0 0 0 0 0 0 0 0 0 0 0 1 1 1 1 0 0 0 0 0 0 0 0 0 0 0 0 0 0 0 0 0 0 0 0 0 0 0 0 0 0 0
0 0 0 0 0 0 0 0 0 0 0 0 0 0 0 0 0 1 1 1 1 1 0 0 0 0 0 0 0 0 0 0 0 0 0 0 0 0 0 0 0 0 0 0 0 0 0 0 0
0 0 0 0 0 0 0 0 0 0 0 0 0 0 0 0 0 1 1 1 1 1 0 0 0 0 0 0 0 0 0 0 0 0 0 0 0 0 0 0 0 0 0 0 0 0 0 0 0
0 0 0 0 0 0 0 0 0 0 0 0 0 0 0 0 0 0 1 1 1 1 0 0 0 0 0 0 0 0 0 0 0 0 0 0 0 0 0 0 0 0 0 0 0 0 0 0 0
0 0 0 0 0 0 0 0 0 0 0 0 0 0 0 0 0 0 1 1 1 1 0 0 0 0 0 0 0 0 0 0 0 0 0 0 0 0 0 0 0 0 0 0 0 0 0 0 0
0 0 0 0 0 0 0 0 0 0 0 0 0 0 0 0 0 0 1 1 1 1 1 0 0 0 0 0 0 0 0 0 0 0 0 0 0 0 0 0 0 0 0 0 0 0 0 0 0
0 0 0 0 0 0 0 0 0 0 0 0 0 0 0 0 0 0 0 1 1 1 1 0 0 0 0 0 0 0 0 0 0 0 0 0 0 0 0 0 0 0 0 0 0 0 0 0 0
0 0 0 0 0 0 0 0 0 0 0 0 0 0 0 0 0 0 0 0 1 1 1 1 0 0 0 0 0 0 0 0 0 0 0 0 0 0 0 0 0 0 0 0 0 0 0 0 0
0 0 0 0 0 0 0 0 0 0 0 0 0 0 0 0 0 0 0 0 0 1 1 1 1 1 0 0 0 0 0 0 0 0 0 0 0 0 0 0 0 0 0 0 0 0 0 0 0
0 0 0 0 0 0 0 0 0 0 0 0 0 0 0 0 0 0 0 0 0 0 1 1 1 1 1 1 0 0 0 0 0 0 0 0 0 0 0 0 0 0 0 0 0 0 0 0 0
0 0 0 0 0 0 0 0 0 0 0 0 0 0 0 0 0 0 0 0 0 0 1 1 1 1 1 1 1 1 0 0 0 0 0 0 0 0 0 0 0 0 0 0 0 0 0 0 0
0 0 0 0 0 0 0 0 0 0 0 0 0 0 0 0 0 0 0 0 0 0 0 1 1 1 1 1 1 1 1 1 0 0 0 0 0 0 0 0 0 0 0 0 0 0 0 0 0
0 0 0 0 0 0 0 0 0 0 0 0 0 0 0 0 0 0 0 0 0 0 0 1 1 1 2 2 2 2 1 1 1 0 0 0 0 0 0 0 0 0 0 0 0 0 0 0 0
0 0 0 0 0 0 0 0 0 0 0 0 0 0 0 0 0 0 0 0 0 0 0 0 1 1 2 2 2 2 2 1 1 1 0 0 0 0 0 0 0 0 0 0 0 0 0 0 0
0 0 0 0 0 0 0 0 0 0 0 0 0 0 0 0 0 0 0 0 0 0 0 0 1 1 2 2 3 3 2 2 1 1 1 0 0 0 0 0 0 0 0 0 0 0 0 0 0
0 0 0 0 0 0 0 0 0 0 0 0 0 0 0 0 0 0 0 0 0 0 0 0 0 1 1 2 3 3 2 2 1 1 1 0 0 0 0 0 0 0 0 0 0 0 0 0 0
0 0 0 0 0 0 0 0 0 0 0 0 0 0 0 0 0 0 0 0 0 0 0 0 0 0 1 2 2 2 2 1 1 1 1 0 0 0 0 0 0 0 0 0 0 0 0 0 0
0 0 0 0 0 0 0 0 0 0 0 0 0 0 0 0 0 0 0 0 0 0 0 0 0 0 1 1 2 2 1 1 1 1 0 0 0 0 0 0 0 0 0 0 0 0 0 0 0
0 0 0 0 0 0 0 0 0 0 0 0 0 0 0 0 0 0 0 0 0 0 0 0 0 0 0 1 1 1 1 1 1 0 0 0 0 0 0 0 0 0 0 0 0 0 0 0 0
0 0 0 0 0 0 0 0 0 0 0 0 0 0 0 0 0 0 0 0 0 0 0 0 0 0 0 1 1 1 1 1 0 0 0 0 0 0 0 0 0 0 0 0 0 0 0 0 0
0 0 0 0 0 0 0 0 0 0 0 0 0 0 0 0 0 0 0 0 0 0 0 0 0 0 0 0 1 1 1 0 0 0 0 0 0 0 0 0 0 0 0 0 0 0 0 0 0
0 0 0 0 0 0 0 0 0 0 0 0 0 0 0 0 0 0 0 0 0 0 0 0 0 0 0 0 0 0 0 0 0 0 0 0 0 0 0 0 0 0 0 0 0 0 0 0 0
0 0 0 0 0 0 0 0 0 0 0 0 0 0 0 0 0 0 0 0 0 0 0 0 0 0 0 0 0 0 0 0 0 0 0 0 0 0 0 0 0 0 0 0 0 0 0 0 0
0 0 0 0 0 0 0 0 0 0 0 0 0 0 0 0 0 0 0 0 0 0 0 0 0 0 0 0 0 0 0 0 0 0 0 0 0 0 0 0 0 0 0 0 0 0 0 0 0
0 0 0 0 0 0 0 0 0 0 0 0 0 0 0 0 0 0 0 0 0 0 0 0 0 0 0 0 0 0 0 0 0 0 0 0 0 0 0 0 0 0 0 0 0 0 0 0 0
0 0 0 0 0 0 0 0 0 0 0 0 0 0 0 0 0 0 0 0 0 0 0 0 0 0 0 0 0 0 0 0 0 0 0 0 0 0 0 0 0 0 0 0 0 0 0 0 0
Wind_Speed
7 5 3 4 6 3 4 7 5 5 4 3 2 5 6 3 3 3 3 12 15 15 12 15 17 18 18 18 18 17 17 17 17 16 15 14 13 11 10 9 9 8 8 10 12 14 14 13 12
2 3 5 5 4 2 7 7 6 8 6 4 2 4 5 2 2 6 5 12 18 16 12 13 17 19 19 18 18 17 17 17 17 16 15 14 12 11 10 10 9 9 10 12 13 14 13 12 11
2 2 4 4 5 7 8 6 4 5 6 4 1 4 5 6 5 7 8 15 15 13 11 13 18 19 19 18 17 17 16 16 16 16 15 14 12 11 11 11 10 10 11 12 13 12 11 10 9
2 3 4 3 8 10 8 5 4 8 6 1 2 4 2 1 5 8 15 16 15 11 9 13 17 19 18 17 17 17 17 16 16 16 15 14 13 12 12 11 11 11 11 11 11 11 10 8 7
3 4 3 4 10 8 7 6 4 7 5 2 3 4 1 4 5 15 17 17 15 11 10 12 16 18 18 17 17 17 17 17 16 16 15 15 13 13 13 12 11 10 10 10 10 9 8 7 6
3 4 4 7 10 7 8 6 4 8 6 3 4 5 0 2 9 13 14 14 15 14 11 11 15 15 16 17 17 17 17 17 16 16 15 15 14 14 13 12 11 10 10 9 9 8 7 6 5
5 5 6 7 6 7 10 5 5 8 8 6 5 6 2 3 7 10 10 11 12 14 12 9 9 11 13 14 14 15 15 15 16 15 14 13 13 14 13 12 11 10 9 8 8 8 7 6 4
5 5 5 5 6 8 5 3 5 9 10 5 6 9 6 7 7 9 9 9 10 11 11 10 9 8 7 9 12 13 13 13 13 13 12 12 12 12 13 10 10 9 8 8 7 7 6 4 2
4 3 6 7 8 6 3 3 5 4 4 1 2 7 8 9 10 12 9 9 10 11 10 10 9 8 7 7 10 10 11 11 11 10 12 11 7 7 8 8 9 9 8 8 7 6 5 2 2
4 5 8 5 4 3 2 2 5 4 0 2 3 2 5 9 11 13 14 14 14 14 13 10 11 10 9 8 6 5 5 6 6 5 7 5 5 5 7 9 10 9 8 7 6 5 3 1 2
6 7 5 5 4 2 2 2 3 1 1 2 1 3 5 7 9 12 14 14 15 15 14 13 12 11 10 7 6 4 3 4 5 6 6 5 4 4 4 3 4 5 5 3 2 2 1 2 2
4 5 5 4 5 2 2 1 2 2 4 1 1 2 2 4 7 9 13 14 12 14 15 15 14 13 12 9 7 6 5 5 5 6 7 5 4 4 4 3 4 3 2 2 2 2 2 3 3
6 4 4 4 4 4 3 3 3 6 8 4 1 1 3 5 6 5 6 8 10 14 15 15 15 15 13 11 8 9 7 7 7 6 7 7 5 6 5 4 4 4 3 3 3 3 3 4 4
5 5 5 4 3 3 5 5 4 8 7 7 5 4 6 6 7 6 5 6 8 11 14 14 16 16 14 12 10 9 9 8 8 7 8 9 7 7 6 5 5 4 4 3 4 4 4 3 3
3 2 3 4 3 3 2 8 7 9 7 9 11 9 8 9 8 9 9 8 9 10 11 14 16 16 16 15 13 10 10 9 9 8 9 10 9 8 7 6 5 5 4 5 4 4 3 3 3
3 2 2 5 4 5 5 12 8 8 7 10 11 11 11 10 11 10 10 9 8 9 10 13 14 16 16 15 13 10 10 10 9 8 9 11 11 10 8 6 5 5 5 5 5 4 3 3 3
2 3 4 6 5 6 8 9 9 7 7 10 10 10 11 11 11 11 11 10 9 9 10 12 13 15 17 16 13 11 10 11 9 8 8 10 11 11 8 7 6 7 5 4 5 3 3 2 2
5 4 4 6 4 3 7 9 11 7 6 9 10 10 10 13 14 11 10 10 10 9 9 11 12 14 15 12 9 8 8 9 8 9 9 11 9 10 9 7 8 7 6 4 4 4 3 2 2
4 3 3 4 3 2 5 9 13 10 9 12 13 12 13 14 12 9 8 8 8 7 8 9 11 12 11 9 10 10 10 9 8 8 10 11 11 11 10 8 8 7 7 7 7 4 4 2 1
2 2 3 3 3 3 5 11 13 12 12 15 17 16 15 13 10 9 8 7 7 8 8 8 10 11 12 12 12 11 10 8 8 7 9 11 12 12 11 12 9 8 7 7 6 5 4 2 2
4 4 3 3 5 5 5 10 9 8 7 11 14 14 13 14 13 11 9 9 7 8 8 8 10 11 11 11 6 4 3 3 2 5 7 9 11 12 11 12 10 9 8 8 7 6 6 4 2
3 1 2 1 3 4 3 7 10 7 9 8 8 8 10 10 9 8 7 7 7 8 7 7 8 9 10 10 10 12 11 9 9 8 6 7 9 10 11 12 11 10 7 8 7 5 4 5 3
4 4 4 4 3 4 2 4 12 6 7 8 7 6 6 6 5 6 5 6 5 5 4 5 6 7 8 10 13 14 10 7 5 5 7 7 6 8 10 11 10 10 8 8 7 6 5 4 4
6 6 5 5 4 4 5 6 10 6 6 6 6 5 4 3 2 3 2 2 3 3 3 3 4 6 7 9 12 14 13 11 10 9 9 7 5 5 7 9 9 9 8 8 8 7 7 5 5
6 6 3 2 1 7 4 5 12 10 8 7 7 5 3 2 1 1 1 2 3 3 4 3 4 5 6 9 11 13 14 16 17 14 12 10 7 6 9 9 9 9 9 9 8 7 6 6 6
5 7 6 5 4 5 2 7 10 8 7 4 2 2 3 4 3 3 4 3 4 5 5 5 5 6 6 8 9 10 12 10 9 11 11 11 8 7 9 9 9 10 10 9 8 7 6 5 5
6 4 4 3 1 4 6 7 10 3 3 5 6 6 6 6 6 6 6 6 6 6 6 6 6 6 6 7 8 9 10 10 10 10 9 7 8 8 10 10 10 10 10 9 8 6 6 6 4
4 6 5 4 3 4 6 6 5 3 4 5 7 7 8 8 9 9 8 8 8 7 7 6 6 6 5 6 7 7 9 10 11 11 12 11 11 11 12 12 11 11 10 9 8 7 6 5 4
4 4 4 4 3 3 5 8 6 2 2 3 5 7 9 10 10 10 10 9 8 7 6 5 4 4 4 5 7 8 8 10 11 11 12 12 12 13 13 12 12 11 10 8 7 6 6 5 4
5 5 6 4 4 4 3 11 6 4 4 5 8 10 10 10 10 10 10 9 7 6 5 4 3 3 4 6 8 9 10 11 11 11 12 12 13 12 12 12 12 11 9 8 7 7 5 4 3
Wind_Direction
329 348 54 55 56 52 247 246 240 281 288 253 188 135 122 126 176 184 122 139 137 146 152 151 149 145 143 140 139 139 140 139 136 134 132 130 127 124 123 119 114 109 113 117 118 121 122 119 114
352 6 59 66 105 204 254 242 250 245 239 242 175 119 106 103 122 118 126 147 144 147 150 152 150 147 145 144 144 144 143 143 140 138 135 132 129 127 127 124 118 109 108 111 113 114 113 114 111
340 52 95 102 160 198 232 232 256 294 259 228 91 84 119 155 154 153 150 145 142 145 148 154 152 149 148 147 148 148 148 147 145 141 137 133 130 129 129 125 121 115 111 111 113 112 112 113 112
71 66 70 126 221 223 223 242 331 316 294 277 89 66 83 171 175 151 141 143 140 140 143 155 154 152 151 150 151 152 152 152 150 146 142 137 133 131 129 126 125 122 119 118 116 116 117 119 118
73 97 129 217 238 247 250 263 284 278 271 258 109 103 32 354 117 134 143 145 144 141 146 156 156 155 154 153 154 154 155 155 153 150 148 143 138 135 134 134 133 131 129 127 125 125 126 124 120
82 93 148 218 239 258 263 254 260 257 261 253 133 116 116 93 125 143 148 149 148 148 151 158 159 157 157 157 157 158 158 158 157 156 155 150 145 142 142 143 142 140 137 135 134 134 132 130 125
137 140 190 209 234 255 258 251 231 239 244 229 153 119 150 166 152 145 147 146 148 150 153 158 160 161 161 161 161 162 161 160 161 162 161 154 150 151 152 153 152 149 144 142 142 141 140 139 133
159 148 202 210 213 242 254 253 234 218 226 222 136 139 177 196 158 133 134 140 149 154 160 160 160 161 162 163 166 165 163 163 164 161 156 154 156 160 161 161 162 159 155 154 152 150 149 146 133
131 135 206 208 200 235 275 298 298 258 207 159 138 169 183 154 135 128 132 145 160 165 168 166 164 164 163 166 173 168 167 169 166 159 157 155 159 161 165 170 169 168 168 168 166 162 157 142 63
151 186 216 218 196 218 303 318 319 332 217 76 47 82 121 139 145 148 158 167 173 177 178 175 173 171 168 175 170 169 171 171 165 161 161 157 159 167 169 177 176 177 177 179 178 168 158 128 44
180 198 220 261 277 278 284 313 337 350 238 70 97 167 152 160 164 165 172 177 181 180 181 182 181 178 176 176 169 173 171 169 170 171 170 162 161 166 168 168 176 178 179 178 165 119 94 97 89
210 220 212 246 275 277 236 273 321 252 235 273 274 255 193 186 194 186 178 184 182 182 188 185 185 183 183 180 178 178 178 179 182 185 179 166 167 173 170 174 175 174 170 167 150 125 110 100 99
233 252 247 245 269 254 230 222 237 258 265 283 270 218 225 219 227 235 213 191 182 188 192 189 187 187 185 182 183 184 187 188 190 189 188 179 176 180 178 181 178 181 171 161 149 132 119 105 93
218 226 270 277 257 239 231 241 221 249 265 293 290 257 245 241 230 231 233 222 202 197 196 192 192 191 187 187 187 187 190 190 191 196 191 185 183 181 180 180 177 177 168 155 145 138 122 104 93
155 137 312 270 229 224 231 263 227 240 262 278 279 271 250 245 246 235 226 218 211 207 201 195 196 193 191 192 191 190 190 190 192 197 195 188 184 180 178 175 174 171 154 139 124 116 101 93 82
124 122 256 272 226 208 194 257 254 248 251 261 267 269 264 248 241 244 242 231 218 208 205 201 198 195 195 194 193 192 191 191 193 192 193 191 185 178 172 170 168 156 144 138 132 124 101 88 86
134 174 222 276 241 204 200 246 259 250 233 251 261 262 264 263 250 241 245 245 235 215 207 205 201 196 198 197 194 193 190 192 191 189 190 189 183 175 169 165 158 150 141 139 138 120 119 115 109
184 190 218 243 290 209 215 244 264 272 248 252 259 262 263 262 258 247 239 240 241 229 213 208 206 200 198 197 191 190 192 192 190 190 188 182 179 172 163 158 156 151 143 139 132 123 100 107 122
150 165 235 256 321 327 253 260 266 268 267 263 260 256 254 257 261 260 250 245 246 242 226 214 209 206 196 191 189 189 195 194 191 191 187 182 175 169 163 159 158 157 154 153 142 124 114 97 98
216 241 262 284 349 339 289 277 268 253 246 246 251 254 254 257 265 260 254 249 242 242 235 224 215 209 202 198 196 194 189 189 189 184 184 182 174 171 168 163 166 161 147 146 148 136 125 108 89
215 213 233 286 343 0 341 298 276 273 255 253 250 251 252 249 252 255 254 252 248 246 238 231 222 215 209 202 187 152 115 95 141 184 187 183 176 172 168 167 163 162 158 162 159 147 139 139 102
203 206 168 75 34 322 18 303 292 291 302 284 271 259 252 250 246 245 248 252 249 247 244 239 232 222 212 195 181 175 178 181 187 184 178 170 172 171 166 165 161 159 155 154 156 144 140 135 139
145 95 88 84 77 337 274 242 283 304 290 290 290 277 262 255 243 244 243 244 252 257 256 249 241 231 215 197 189 190 191 181 158 148 153 158 160 164 164 161 156 154 149 145 139 134 130 125 137
123 68 57 54 63 289 223 189 277 265 253 300 319 317 292 279 262 261 266 270 281 287 281 266 249 242 221 204 196 194 184 161 154 159 163 160 150 150 157 153 150 146 143 140 136 130 125 119 120
104 93 58 352 294 256 206 198 254 262 265 268 285 308 330 347 356 326 314 313 302 301 294 280 256 249 229 210 203 197 186 174 173 170 169 164 160 161 163 153 147 143 137 132 129 123 121 121 123
144 137 160 197 231 283 254 231 254 270 285 282 301 353 9 2 345 317 299 290 285 287 291 285 264 251 234 213 204 195 183 177 175 171 166 168 165 154 149 142 138 135 132 130 125 120 119 116 117
139 163 155 131 324 284 278 283 295 284 357 13 17 15 357 339 324 311 305 296 283 278 275 268 259 247 233 212 193 183 174 167 160 154 146 141 136 137 139 135 134 130 128 127 123 121 119 122 120
137 142 114 135 178 269 289 271 255 291 349 3 6 353 335 326 315 306 299 292 284 275 269 266 250 234 224 196 178 170 164 156 149 146 145 143 141 141 140 136 133 129 125 124 119 120 123 126 125
146 151 144 144 172 188 286 274 227 232 295 324 327 328 323 317 311 306 302 297 291 285 275 266 255 233 199 174 156 147 146 142 142 143 143 141 139 141 139 136 133 129 126 123 121 122 129 127 123
166 174 151 159 216 196 230 272 268 255 273 301 315 316 312 308 305 303 300 300 299 294 289 273 241 203 175 151 140 138 136 137 138 138 138 136 135 135 132 130 127 123 120 119 122 124 120 121 129